COSMOS 1275 DEB, 17629

Orbit data source: Space-Track

COSMOS 1275 DEB, 17629 is space debris in LEO originally from a launch on Thu, 04 Jun 1981 UTC launched from the Plesetsk Missile And Space Complex (PKMTR). Debris objects in space refer to the collection of defunct objects orbiting the Earth. Examples of debris include non-operational satellites, rocket bodies, and fragments generated from explosions, collisions, or faulty payload assembly.

Loading next visibility...
Identifier
17629, 1981-053KY
Orbit
LEO
Country
Flag of CISCIS
Related business
Manufacturer
Unknown
Mission
Spacecraft
Bus & Motor
Unknown
Mass
Unknown
Launch date (UTC)
1981-06-04 (44 years ago)
Launch vehicle
Unknown
Launch site
Plesetsk Missile And Space Complex (PKMTR)
Object type
Payload
Rocket body
Debris
Shape & HBR
Unknown shape, 0.1 m
Radar Cross Section
Small (<0.1 m²)

Expand to show TLE details & history
Last TLE update: 19 hours ago

TLE from 19 hours ago
0 COSMOS 1275 DEB
1 17629U 81053KY  25286.22770536  .00001556  00000-0  16670-2 0  9996
2 17629  82.9908 189.2044 0156204 150.5156 340.5758 13.67961870  4107
Epoch: 2025-10-13T05:27Z
TLE epoch observation values (Epoch: 2025-10-13T05:27:53.743Z)
Latitude
49.11364°
Longitude
-102.92356°
Altitude
906.028 km
Speed
7.458 km/s
True Right ascension
00h 04m 20s
True Declination
48° 56' 49"
Sunlit
Object was in full shadow at epoch
Visualization orbit readout
Latitude
Unknown
Longitude
Unknown
Altitude
Unknown
Speed
Unknown
Apparent Right ascension
Unknown
Apparent Declination
Unknown
Sunlit
N/A
Visualization observer readout
Local Sidereal Time
19:14:55
Azimuth
Unknown
Elevation
Unknown
Doppler factor
Unknown
Orbital elements
Apogee altitude
1,119.366 km
Perigee altitude
888.74 km
Semi-major axis
7,382.19 km
Eccentricity
0.01562
Inclination
82.9908°
RAAN
189.2044°
Arg. of periapsis
150.5156°
True anomaly
339.96938°
Mean anomaly
340.5758°
Eccentric anomaly
340.27372°
Mean motion
3.42188 °/min
Orbital period
105.21 mins
BSTAR
0.001667
Loading maneuver chart data...
Computing Atmospheric mass density...
Loading historical data...
Loading historical data...
Loading historical data...
Loading historical data...
Loading historical data...
Loading historical data...
Loading historical data...

Documentation

Showing up to 5 results
|